TimeMST,TemperatureF,Dew PointF,Humidity,Sea Level PressureIn,VisibilityMPH,Wind Direction,Wind SpeedMPH,Gust SpeedMPH,PrecipitationIn,Events,Conditions,WindDirDegrees,DateUTC
12:53 AM,53.1,30.9,43,29.79,10.0,Calm,Calm,-,N/A,,Clear,0,2012-11-21 07:53:00
1:53 AM,46.9,32.0,56,29.82,10.0,NNE,6.9,-,N/A,,Clear,30,2012-11-21 08:53:00
2:53 AM,43.0,33.1,68,29.81,10.0,NNW,5.8,-,N/A,,Clear,330,2012-11-21 09:53:00
3:53 AM,43.0,33.1,68,29.82,10.0,North,3.5,-,N/A,,Clear,360,2012-11-21 10:53:00
4:53 AM,39.2,32.0,75,29.81,10.0,Calm,Calm,-,N/A,,Clear,0,2012-11-21 11:53:00
5:53 AM,37.0,30.9,79,29.82,10.0,SE,3.5,-,N/A,,Clear,140,2012-11-21 12:53:00
6:53 AM,36.0,30.9,82,29.76,10.0,SSW,6.9,-,N/A,,Clear,210,2012-11-21 13:53:00
7:53 AM,37.0,32.0,82,29.76,10.0,WNW,3.5,-,N/A,,Clear,300,2012-11-21 14:53:00
8:53 AM,39.0,33.1,79,29.73,10.0,WNW,5.8,-,N/A,,Clear,290,2012-11-21 15:53:00
9:53 AM,43.0,34.0,71,29.72,10.0,Calm,Calm,-,N/A,,Clear,0,2012-11-21 16:53:00
10:53 AM,45.0,36.0,71,29.71,10.0,South,6.9,-,N/A,,Clear,180,2012-11-21 17:53:00
11:53 AM,52.0,37.0,57,29.66,10.0,Calm,Calm,-,N/A,,Clear,0,2012-11-21 18:53:00
12:53 PM,57.0,34.0,42,29.64,10.0,Calm,Calm,-,N/A,,Clear,0,2012-11-21 19:53:00
1:53 PM,64.9,30.9,28,29.62,10.0,East,4.6,-,N/A,,Partly Cloudy,90,2012-11-21 20:53:00
2:53 PM,66.0,28.9,25,29.62,10.0,Variable,3.5,-,N/A,,Partly Cloudy,0,2012-11-21 21:53:00
3:53 PM,59.0,28.9,32,29.65,10.0,SW,11.5,-,N/A,,Clear,220,2012-11-21 22:53:00
4:53 PM,53.1,30.0,41,29.70,10.0,WNW,10.4,-,N/A,,Partly Cloudy,300,2012-11-21 23:53:00
5:53 PM,52.0,30.0,43,29.73,10.0,West,9.2,-,N/A,,Partly Cloudy,280,2012-11-22 00:53:00
6:53 PM,46.0,35.1,66,29.84,10.0,NNW,25.3,38.0,N/A,,Mostly Cloudy,330,2012-11-22 01:53:00
7:53 PM,42.1,35.1,76,29.87,10.0,West,12.7,-,N/A,,Partly Cloudy,270,2012-11-22 02:53:00
8:53 PM,44.1,35.1,71,29.86,10.0,West,10.4,-,N/A,,Overcast,280,2012-11-22 03:53:00
9:53 PM,44.1,33.1,65,29.87,10.0,WNW,18.4,-,N/A,,Mostly Cloudy,290,2012-11-22 04:53:00
10:53 PM,39.9,30.9,70,29.89,10.0,WNW,26.5,34.5,N/A,,Scattered Clouds,300,2012-11-22 05:53:00
11:53 PM,36.0,30.0,79,29.95,10.0,NW,25.3,33.4,N/A,,Scattered Clouds,310,2012-11-22 06:53:00